Raton, NM

2:31 PM MST on January 22, 2018 (GMT -0700)
Raton Municipal-Crews

Weather History for KRTN - November, 2012

Change the Weather History Date:

Tuesday, November 6, 2012

  Actual Average (KTAD) Record (KTAD)
Temperature  
Mean Temperature 50 °F -  
Max Temperature 69 °F 61 °F 78 °F (1988)
Min Temperature 32 °F 29 °F 10 °F (1959)
Degree Days  
Heating Degree Days 14    
Moisture  
Dew Point 21 °F    
Average Humidity 36    
Maximum Humidity 61    
Minimum Humidity 15    
Precipitation  
Precipitation 0.00 in - - ()
Sea Level Pressure  
Sea Level Pressure 30.17 in    
Wind  
Wind Speed 6 mph (East)    
Max Wind Speed 10 mph    
Max Gust Speed 16 mph    
Visibility 10 miles    
Events      
Averages and records for this station are not official NWS values.
T = Trace of Precipitation, MM = Missing Value Source: NWS Daily Summary

Daily Weather History Graph

Daily Weather History Graph

Search for Another Location

Airport or City:

Trip Planner

Search our weather history database for the weather conditions in past years. The results will help you decide how hot, cold, wet, or windy it might be!

Date:

Astronomy

Nov. 06, 2012 Rise Set
Actual Time 6:27 AM MST 4:55 PM MST
Civil Twilight 6:00 AM MST 5:22 PM MST
Nautical Twilight 5:29 AM MST 5:53 PM MST
Astronomical Twilight 4:58 AM MST 6:23 PM MST
Moon 11:35 PM MST (11/6) 12:22 PM MST (11/6)
Length of Visible Light 11h 22m
Length of Day
10h 28m
Waning Gibbous, 52% of the Moon is Illuminated
Nov 6
Waning Gibbous
Nov 6
Last Quarter
Nov 13
New
Nov 20
First Quarter
Nov 28
Full

Hourly Weather History & Observations

Time (MST) Temp. Windchill Dew Point Humidity Pressure Visibility Wind Dir Wind Speed Gust Speed Precip Events Conditions
12:53 AM 34.0 °F 27.2 °F 19.9 °F 56% 30.17 in 10.0 mi ENE 8.1 mph - N/A   Clear
1:53 AM 34.0 °F 28.8 °F 19.9 °F 56% 30.17 in 10.0 mi ENE 5.8 mph - N/A   Clear
2:53 AM 33.1 °F 26.1 °F 19.9 °F 59% 30.16 in 10.0 mi NE 8.1 mph - N/A   Clear
3:53 AM 32.0 °F - 19.9 °F 61% 30.16 in 10.0 mi Calm Calm - N/A   Clear
4:53 AM 33.1 °F - 21.0 °F 61% 30.19 in 10.0 mi Calm Calm - N/A   Clear
5:53 AM 37.0 °F 34.5 °F 21.0 °F 52% 30.20 in 10.0 mi North 3.5 mph - N/A   Clear
6:53 AM 39.9 °F 35.1 °F 21.0 °F 47% 30.22 in 10.0 mi North 6.9 mph - N/A   Clear
7:53 AM 44.1 °F 40.8 °F 21.9 °F 42% 30.25 in 10.0 mi NE 5.8 mph - N/A   Clear
8:53 AM 52.0 °F - 21.9 °F 31% 30.23 in 10.0 mi ENE 5.8 mph - N/A   Clear
9:53 AM 62.1 °F - 23.0 °F 22% 30.20 in 10.0 mi ENE 5.8 mph - N/A   Clear
10:53 AM 64.9 °F - 23.0 °F 20% 30.17 in 10.0 mi ESE 9.2 mph - N/A   Clear
11:53 AM 66.0 °F - 21.0 °F 18% 30.15 in 10.0 mi Variable 5.8 mph - N/A   Clear
12:53 PM 68.0 °F - 21.0 °F 17% 30.12 in 10.0 mi SSW 6.9 mph - N/A   Clear
1:53 PM 69.1 °F - 19.9 °F 15% 30.10 in 10.0 mi SSE 3.5 mph - N/A   Clear
2:53 PM 69.1 °F - 21.9 °F 17% 30.11 in 10.0 mi SSW 10.4 mph 16.1 mph N/A   Clear
3:53 PM 66.9 °F - 21.0 °F 17% 30.12 in 10.0 mi SSW 9.2 mph - N/A   Clear
4:53 PM 60.1 °F - 19.9 °F 21% 30.15 in 10.0 mi South 5.8 mph - N/A   Clear
5:53 PM 55.9 °F - 21.0 °F 26% 30.17 in 10.0 mi SW 6.9 mph - N/A   Clear
6:53 PM 51.1 °F - 21.0 °F 31% 30.20 in 10.0 mi WSW 4.6 mph - N/A   Clear
7:53 PM 50.0 °F - 21.9 °F 33% 30.20 in 10.0 mi South 3.5 mph - N/A   Clear
8:53 PM 46.0 °F - 21.9 °F 39% 30.19 in 10.0 mi Calm Calm - N/A   Clear
9:53 PM 48.0 °F - 23.0 °F 37% 30.14 in 10.0 mi Calm Calm - N/A   Clear
10:53 PM 39.9 °F 37.8 °F 21.9 °F 49% 30.16 in 10.0 mi NNW 3.5 mph - N/A   Clear
11:53 PM 39.9 °F 36.7 °F 21.9 °F 49% 30.16 in 10.0 mi North 4.6 mph - N/A   Clear